Regional Weather Roundup
Issued by NWS

Home | Current Version | Previous Version | Text Only | Print | Product List | Glossary Off
Versions: 1 2 3 4 5 6 7 8 9 10 11 12 13 14 15 16 17 18 19 20 21 22 23 24 25 26 27 28 29 30 31 32 33 34 35 36 37 38 39 40 41 42 43 44 45 46 47 48 49 50

000
ASUS43 KLMK 310610
RWRKY
KENTUCKY REGIONAL WEATHER ROUNDUP
NATIONAL WEATHER SERVICE LOUISVILLE KY
200 AM EDT THU JUL 31 2014

NOTE "FAIR" INDICATES FEW OR NO CLOUDS BELOW 12,000 FEET
WITH NO SIGNIFICANT WEATHER AND/OR OBSTRUCTIONS TO VISIBILITY.

KYZ001>023-026-027-061>063-070>075-310700-
WESTERN AND SOUTH CENTRAL KENTUCKY

CITY           SKY/WX    TMP DP  RH WIND       PRES   REMARKS
PADUCAH        PTCLDY    63  60  90 CALM      30.07S FOG
HENDERSON      PTCLDY    61  55  82 CALM      30.08S
OWENSBORO      PTCLDY    64  59  84 CALM      30.09S
HOPKINSVILLE   PTCLDY    63  58  83 SE2       30.09R
BOWLING GREEN  MOCLDY    64  57  78 CALM      30.10S
GLASGOW        MOCLDY    61  61  98 CALM      30.10S
$$

KYZ024-025-028>034-038-045-046-053-310700-
NORTH CENTRAL KENTUCKY

CITY           SKY/WX    TMP DP  RH WIND       PRES   REMARKS
LOUISVILLE/SDF MOCLDY    70  60  70 CALM      30.07F
LOUISVILLE/LOU PTCLDY    66  60  81 CALM      30.08S
FORT KNOX      MOCLDY    60  59  96 CALM      30.08S
$$

KYZ035>037-039>044-047>052-055>060-089>105-310700-
NORTHEAST KENTUCKY

CITY           SKY/WX    TMP DP  RH WIND       PRES   REMARKS
LEXINGTON      PTCLDY    61  57  87 S5        30.10S
COVINGTON      PTCLDY    67  60  78 SW3       30.07S
FRANKFORT      PTCLDY    61  58  90 CALM      30.08S
$$

KYZ054-064>069-076>088-106>120-310700-
SOUTHEAST KENTUCKY

CITY           SKY/WX    TMP DP  RH WIND       PRES   REMARKS
JACKSON        CLEAR     63  59  87 CALM      30.12S
LONDON         PTCLDY    62  59  90 CALM      30.12S
SOMERSET       PTCLDY    61  61 100 CALM      30.12S
MIDDLESBORO    PTCLDY    58  58  97 CALM      30.14R
MONTICELLO     MOCLDY    59  59 100 CALM      30.12S FOG
$$



USA.gov is the U.S. government's official web portal to all federal, state and local government web resources and services.